Погода в Ветошкином

Россия / Кировская область     57°17′27″N   49°43′04″E
темп.,
°C
ветер,
м/с
пор.,
м/с
влажн.,
%
обл.,
%
осадки,
мм/ч
давл.,
гПа
погр.,
м
1 августа, вс
вс100:00+16юз468940 0.0 100591
03:00+17зюз411841 0.0 1006231
06:00+18з48800 0.0 1007268
09:00+23з59500 0.0 10091261
12:00+26з7943100 0.0 10092255
15:00+26з793912 0.0 10092444
18:00+24з355198 0.0 1010157
21:00+21юз2362100 0.0 101149
2 августа, пн
пн200:00+19зюз3770100 0.0 1011124
03:00+19зюз3667100 0.0 1012131
06:00+20юз496428 0.0 1012293
09:00+24зюз685181 0.1 1012627
12:00+28юз5743100 0.1 10121269
15:00+28юз474699 0.1 1011839
18:00+27ююз345320 0.0 101087
21:00+22юз336840 0.0 101039
3 августа, вт
вт300:00+20юз2279100 0.8 101018
03:00+19ю337920 0.8 101027
06:00+20ююв387180 0.0 1010199
09:00+29ю6104019 0.0 1008655
12:00+32ююз683334 0.0 10071222
15:00+31ююз8103845 0.0 10061311
18:00+23ссз576715 0.0 1008330
21:00+20ю33785 0.8 100841
4 августа, ср
ср400:00+19ююз36884 0.0 1008101
03:00+18зюз3692100 0.2 1009106
06:00+19зюз3592100 1.1 1009227
09:00+20з2484100 1.9 1009471
12:00+24з3363100 0.3 10091110
15:00+24з5665100 2.5 10101125
18:00+22сз46676 0.1 1010875
21:00+17сз3788100 0.3 1011127
5 августа, чт
чт500:00+16сз358618 0.0 101273
03:00+16ссз3782100 0.0 1014176
06:00+17сз377960 0.0 1014268
09:00+21сз565223 0.0 1015780
12:00+23ссз554393 0.0 10151734
15:00+23ссз554038 0.0 10152105
18:00+20ссз68452 0.0 1015804
21:00+14с37630 0.0 1017122